This demonstration page uses our WeatherBlox Daily Observations layout. Learn more.

Left ArrowRight Arrow

38.88101, -77.10428

Hourly Observations for March 8, 2019

Temp ( °F °C ) Dew Point ( °F °C ) Humidity (%) Winds ( mph kmh ) Pressure ( in mb ) Visibility ( mi km ) Precip ( " mm )
12:52 am 00:52 Cloudy 36 2.2 15 -9.4 42 42 ENE 6 9 30.39 1029 10 16 0.00 0.00
1:52 am 01:52 Cloudy 36 2.2 15 -9.4 42 42 E 5 7 30.39 1029 10 16 0.00 0.00
2:52 am 02:52 Cloudy 35 1.7 17 -8.3 48 48 E 3 6 30.38 1029 10 16 0.00 0.00
3:52 am 03:52 Cloudy 34 1.1 19 -7.2 54 54 NE 5 7 30.38 1029 10 16 0.00 0.00
4:52 am 04:52 Cloudy 34 1.1 19 -7.2 54 54 NE 5 7 30.38 1029 10 16 0.00 0.00
5:52 am 05:52 Clear 33 0.6 18 -7.8 54 54 ENE 6 9 30.39 1029 10 16 0.00 0.00
6:52 am 06:52 Cloudy 33 0.6 19 -7.2 56 56 NNE 5 7 30.40 1029 10 16 0.00 0.00
7:52 am 07:52 Cloudy 36 2.2 20 -6.7 52 52 NE 6 9 30.41 1030 10 16 0.00 0.00
8:52 am 08:52 Cloudy 38 3.3 17 -8.3 43 43 ESE 7 11 30.40 1029 10 16 0.00 0.00
9:52 am 09:52 Cloudy 39 3.9 18 -7.8 43 43 ESE 5 7 30.39 1029 10 16 0.00 0.00
10:52 am 10:52 Cloudy 41 5 24 -4.4 51 51 S 12 19 30.38 1029 10 16 0.00 0.00
11:52 am 11:52 Cloudy 38 3.3 27 -2.8 65 65 SSE 6 9 30.36 1028 10 16 0.00 0.00
12:15 pm 12:15 Cloudy with Light Snow 39 3.9 27 -2.8 62 62 S 8 13 30.35 1028 10 16 0.00 0.03
12:32 pm 12:32 Cloudy with Light Snow 39 3.9 29 -1.7 67 67 S 8 13 30.34 1028 3 5 0.00 0.03
12:52 pm 12:52 Cloudy with Light Rain/Snow 38 3.3 31 -0.6 76 76 S 7 11 30.33 1027 5 8 0.00 0.03
1:39 pm 13:39 Cloudy with Light Rain 38 3.3 32 0 79 79 S 5 7 30.29 1026 7 11 0.00 0.03
1:52 pm 13:52 Cloudy with Light Rain 38 3.3 31 -0.6 76 76 S 5 7 30.27 1025 10 16 0.00 0.03
2:02 pm 14:02 Cloudy with Light Rain/Snow 38 3.3 31 -0.6 76 76 Calm 30.27 1025 10 16 0.00 0.03
2:24 pm 14:24 Cloudy with Light Rain 38 3.3 31 -0.6 76 76 Calm 30.28 1025 10 16 0.00 0.03
2:52 pm 14:52 Cloudy with Rain 38 3.3 32 0 79 79 Calm 30.28 1025 4 6 0.01 0.25
3:01 pm 15:01 Cloudy with Rain/Snow 38 3.3 32 0 79 79 Calm 30.28 1025 3 4 0.01 0.25
3:06 pm 15:06 Cloudy with Rain/Snow 37 2.8 32 0 82 82 Calm 30.28 1025 3 4 0.02 0.51
3:20 pm 15:20 Cloudy with Light Wintry Mix 36 2.2 31 -0.6 82 82 Calm 30.28 1025 3 5 0.04 1.02
3:40 pm 15:40 Cloudy with Light Wintry Mix 35 1.7 31 -0.6 85 85 Calm 30.27 1025 2 3 0.07 1.78
3:52 pm 15:52 Cloudy with Light Wintry Mix 35 1.7 32 0 89 89 Calm 30.26 1025 2 3 0.08 2.03
4:00 pm 16:00 Cloudy with Light Wintry Mix 35 1.7 32 0 89 89 Calm 30.26 1025 2 3 0.01 0.25
4:10 pm 16:10 Cloudy with Light Wintry Mix 35 1.7 32 0 89 89 Calm 30.26 1025 2 3 0.01 0.25
4:13 pm 16:13 Cloudy with Light Wintry Mix 35 1.7 31 -0.6 85 85 Calm 30.26 1025 2 3 0.02 0.51
4:23 pm 16:23 Cloudy with Light Wintry Mix 35 1.7 31 -0.6 85 85 Calm 30.25 1024 2 2 0.02 0.51
4:52 pm 16:52 Cloudy with Light Wintry Mix 34 1.1 31 -0.6 89 89 NE 3 6 30.24 1024 2 2 0.05 1.27
5:24 pm 17:24 Cloudy with Light Wintry Mix 34 1.1 32 0 92 92 Calm 30.25 1024 1 2 0.02 0.51
5:41 pm 17:41 Cloudy with Light Wintry Mix 34 1.1 32 0 92 92 Calm 30.25 1024 1 2 0.03 0.76
5:45 pm 17:45 Mostly Cloudy with Light Wintry Mix 34 1.1 32 0 92 92 Calm 30.25 1024 1 2 0.04 1.02
5:52 pm 17:52 Cloudy with Light Wintry Mix 34 1.1 32 0 92 92 Calm 30.24 1024 1 1 0.04 1.02
5:55 pm 17:55 Mostly Cloudy with Light Wintry Mix 34 1.1 31 -0.6 89 89 Calm 30.24 1024 1 1 0.00 0.03
6:03 pm 18:03 Mostly Cloudy with Light Wintry Mix 34 1.1 31 -0.6 89 89 Calm 30.24 1024 1 2 0.01 0.25
6:08 pm 18:08 Cloudy with Light Wintry Mix 34 1.1 31 -0.6 89 89 Calm 30.24 1024 1 2 0.01 0.25
6:12 pm 18:12 Cloudy with Light Wintry Mix 34 1.1 31 -0.6 89 89 NE 3 6 30.24 1024 2 3 0.01 0.25
6:17 pm 18:17 Cloudy with Light Wintry Mix 34 1.1 31 -0.6 89 89 NE 3 6 30.24 1024 2 3 0.01 0.25
6:19 pm 18:19 Cloudy with Light Wintry Mix 34 1.1 31 -0.6 89 89 NE 3 6 30.24 1024 2 3 0.02 0.51
6:21 pm 18:21 Cloudy with Light Wintry Mix 34 1.1 31 -0.6 89 89 NE 3 6 30.24 1024 2 3 0.02 0.51
6:24 pm 18:24 Cloudy with Light Wintry Mix 34 1.1 31 -0.6 89 89 ENE 3 6 30.24 1024 2 3 0.02 0.51
6:42 pm 18:42 Cloudy with Light Wintry Mix 34 1.1 32 0 92 92 ENE 3 6 30.23 1024 3 5 0.02 0.51
6:52 pm 18:52 Cloudy with Light Snow 34 1.1 32 0 92 92 ENE 3 6 30.23 1024 3 5 0.03 0.76
6:55 pm 18:55 Cloudy with Light Snow 34 1.1 32 0 92 92 ENE 3 6 30.23 1024 3 5 0.00 0.03
7:19 pm 19:19 Cloudy with Light Snow 35 1.7 32 0 89 89 ENE 3 6 30.23 1024 3 5 0.00 0.03
7:52 pm 19:52 Cloudy with Drizzle 35 1.7 32 0 89 89 NE 3 6 30.23 1024 4 6 0.00 0.03
8:52 pm 20:52 Cloudy with Drizzle 35 1.7 32 0 89 89 ENE 5 7 30.23 1024 6 10 0.00 0.03
9:52 pm 21:52 Cloudy with Drizzle 36 2.2 33 0.6 89 89 E 3 6 30.23 1024 5 8 0.00 0.03
10:39 pm 22:39 Cloudy 36 2.2 33 0.6 89 89 ESE 3 6 30.23 1024 10 16 0.00 0.03
10:52 pm 22:52 Cloudy 36 2.2 33 0.6 89 89 Calm 30.23 1024 9 14 0.00 0.03
11:06 pm 23:06 Cloudy 36 2.2 33 0.6 89 89 Calm 30.23 1024 8 13 0.00 0.00
11:33 pm 23:33 Cloudy 36 2.2 33 0.6 89 89 Calm 30.23 1024 8 13 0.00 0.00
11:52 pm 23:52 Cloudy 36 2.2 32 0 86 86 Calm 30.23 1024 10 16 0.00 0.00

Powered by AerisWeather